EW1845 Weather Reports


Display with metric or nautical units.
time (UTC)temp
F
wind
direction
speed
MPH
gust
MPH
rain 1hr
in
rain 24hr
in
rain mn
in
humidity
%
barometer
mb
20260831001941 79 187 2.0 6.0 0.00 0.00 0.00 58 1009.0
20260831001602 78 139 4.0 7.0 0.00 0.00 0.00 61 1009.1
20260831000927 80 283 2.0 6.0 0.00 0.00 0.00 60 1009.2
20260831000105 80 185 2.0 5.0 0.00 0.00 0.00 59 1009.2
20260830235941 81 200 1.0 6.0 0.00 0.00 0.00 60 1009.2
20260830234916 81 241 2.0 7.0 0.00 0.00 0.00 58 1009.0
20260830234504 81 243 4.0 7.0 0.00 0.00 0.00 57 1009.1
20260830233107 83 199 4.0 8.0 0.00 0.00 0.00 55 1009.1
20260830232734 85 196 2.0 9.0 0.00 0.00 0.00 55 1009.1
20260830231716 85 236 3.0 9.0 0.00 0.00 0.00 53 1009.1
20260830231503 85 212 4.0 10.0 0.00 0.00 0.00 53 1009.1
20260830230718 85 250 3.0 8.0 0.00 0.00 0.00 54 1009.3
20260830230004 86 193 5.0 7.0 0.00 0.00 0.00 52 1009.4
20260830225734 86 266 3.0 8.0 0.00 0.00 0.00 52 1009.4
20260830224736 86 300 2.0 8.0 0.00 0.00 0.00 52 1009.3
20260830224607 86 236 4.0 9.0 0.00 0.00 0.00 51 1009.3
20260830223704 86 212 3.0 7.0 0.00 0.00 0.00 54 1009.4
20260830223003 86 230 3.0 8.0 0.00 0.00 0.00 54 1009.6
20260830222635 86 228 2.0 7.0 0.00 0.00 0.00 54 1009.6
20260830221657 85 139 2.0 9.0 0.00 0.00 0.00 56 1009.7
20260830221603 85 43 2.0 8.0 0.00 0.00 0.00 55 1009.8
20260830220716 86 238 3.0 9.0 0.00 0.00 0.00 56 1009.8
20260830220105 85 239 4.0 10.0 0.00 0.00 0.00 55 1010.0
20260830215702 86 188 2.0 9.0 0.00 0.00 0.00 56 1010.0
20260830214651 86 198 2.0 8.0 0.00 0.00 0.00 56 1010.1
20260830214501 85 116 3.0 8.0 0.00 0.00 0.00 55 1010.1
20260830213633 87 219 2.0 8.0 0.00 0.00 0.00 54 1010.2
20260830213104 86 200 2.0 9.0 0.00 0.00 0.00 55 1010.3
20260830212604 85 226 4.0 8.0 0.00 0.00 0.00 55 1010.3
20260830211505 86 167 5.0 9.0 0.00 0.00 0.00 54 1010.4
20260830210454 86 155 3.0 8.0 0.00 0.00 0.00 55 1010.4
20260830210005 86 233 4.0 8.0 0.00 0.00 0.00 54 1010.5
20260830204618 85 193 5.0 12.0 0.00 0.00 0.00 55 1010.6
20260830204338 85 185 4.0 11.0 0.00 0.00 0.00 55 1010.5
20260830203354 86 186 4.0 7.0 0.00 0.00 0.00 55 1010.7
20260830203003 85 276 3.0 8.0 0.00 0.00 0.00 55 1010.6
20260830202401 86 240 3.0 9.0 0.00 0.00 0.00 56 1010.5
20260830201630 84 180 5.0 0.0 0.00 0.00 0.00 58 1010.5
20260830201412 85 257 4.0 9.0 0.00 0.00 0.00 56 1010.5
20260830200340 86 160 4.0 9.0 0.00 0.00 0.00 56 1010.5
20260830200103 85 266 4.0 10.0 0.00 0.00 0.00 57 1010.6
20260830195330 86 248 3.0 9.0 0.00 0.00 0.00 57 1010.5
20260830194338 85 204 4.0 9.0 0.00 0.00 0.00 56 1010.6
20260830193103 87 198 4.0 9.0 0.00 0.00 0.00 54 1010.8
20260830192238 87 210 3.0 9.0 0.00 0.00 0.00 51 1010.8
20260830191510 86 218 3.0 10.0 0.00 0.00 0.00 51 1010.9
20260830190133 85 193 3.0 9.0 0.00 0.00 0.00 53 1010.9
20260830190003 85 217 1.0 10.0 0.00 0.00 0.00 54 1010.9
20260830185119 85 255 3.0 7.0 0.00 0.00 0.00 54 1010.9
20260830184611 85 221 4.0 8.0 0.00 0.00 0.00 53 1010.9
20260830183002 84 156 4.0 9.0 0.00 0.00 0.00 55 1011.1
20260830182930 84 240 2.0 8.0 0.00 0.00 0.00 56 1011.1
20260830181903 84 149 2.0 7.0 0.00 0.00 0.00 55 1011.2
20260830181602 84 105 2.0 7.0 0.00 0.00 0.00 56 1011.2
20260830180836 83 211 3.0 7.0 0.00 0.00 0.00 58 1011.1
20260830180105 83 211 3.0 7.0 0.00 0.00 0.00 58 1011.1
20260830175814 83 85 2.0 6.0 0.00 0.00 0.00 59 1011.1
20260830174503 83 206 3.0 6.0 0.00 0.00 0.00 60 1011.2
20260830173108 82 160 0.0 5.0 0.00 0.00 0.00 62 1011.2
20260830172451 82 140 0.0 4.0 0.00 0.00 0.00 63 1011.1
20260830171502 79 210 2.0 5.0 0.00 0.00 0.00 65 1011.1
20260830171453 80 210 1.0 4.0 0.00 0.00 0.00 65 1011.1
20260830170510 79 172 1.0 3.0 0.00 0.00 0.00 68 1011.0
20260830170003 78 102 1.0 5.0 0.00 0.00 0.00 68 1011.1
20260830165515 79 203 1.0 3.0 0.00 0.00 0.00 67 1011.0
20260830164603 79 240 1.0 6.0 0.00 0.00 0.00 68 1011.0
20260830164449 79 207 1.0 5.0 0.00 0.00 0.00 68 1011.0
20260830163005 78 160 2.0 5.0 0.00 0.00 0.00 69 1011.0
20260830162339 78 212 2.0 5.0 0.00 0.00 0.00 71 1011.0
20260830161611 77 212 3.0 6.0 0.00 0.00 0.00 72 1011.0
20260830161310 77 189 1.0 5.0 0.00 0.00 0.00 73 1011.0
20260830160332 76 216 1.0 4.0 0.00 0.00 0.00 75 1011.0
20260830160104 76 229 2.0 4.0 0.00 0.00 0.00 75 1011.0
20260830155336 76 185 0.0 2.0 0.00 0.00 0.00 76 1011.0
20260830154502 74 131 0.0 3.0 0.00 0.00 0.00 78 1011.0
20260830154310 75 155 0.0 4.0 0.00 0.00 0.00 79 1011.0
20260830153306 73 202 1.0 3.0 0.00 0.00 0.00 80 1011.1
20260830153003 73 193 1.0 3.0 0.00 0.00 0.00 82 1011.1
20260830151603 72 169 0.0 2.0 0.00 0.00 0.00 83 1011.2
20260830151049 72 51 0.0 3.0 0.00 0.00 0.00 83 1011.1
20260830150106 71 50 2.0 4.0 0.00 0.00 0.00 84 1011.4
20260830150027 72 56 0.0 3.0 0.00 0.00 0.00 84 1011.4
20260830145044 71 22 0.0 3.0 0.00 0.00 0.00 83 1011.2
20260830144510 70 40 1.0 3.0 0.00 0.00 0.00 84 1011.1
20260830144104 70 41 0.0 1.0 0.00 0.00 0.00 84 1011.1
20260830143113 70 23 0.0 0.0 0.00 0.00 0.00 83 1011.0
20260830143104 70 23 0.0 1.0 0.00 0.00 0.00 83 1011.0
20260830142044 70 23 0.0 0.0 0.00 0.00 0.00 83 1010.9
20260830141503 69 20 0.0 2.0 0.00 0.00 0.00 83 1010.9
20260830141016 70 20 0.0 3.0 0.00 0.00 0.00 82 1010.7
20260830140002 69 36 0.0 2.0 0.00 0.00 0.00 81 1010.8
20260830135951 69 36 0.0 0.0 0.00 0.00 0.00 81 1010.8
20260830134934 68 316 0.0 0.0 0.00 0.00 0.00 83 1010.7
20260830134602 68 250 0.0 1.0 0.00 0.00 0.00 82 1010.7
20260830133909 69 250 0.0 0.0 0.00 0.00 0.00 80 1010.6
20260830133002 69 345 0.0 1.0 0.00 0.00 0.00 82 1010.5
20260830132839 69 345 0.0 0.0 0.00 0.00 0.00 81 1010.4
20260830131850 69 10 0.0 1.0 0.00 0.00 0.00 82 1010.2
20260830131602 68 26 1.0 2.0 0.00 0.00 0.00 83 1010.2
20260830130913 68 1 0.0 0.0 0.00 0.00 0.00 83 1010.2
20260830130117 68 1 0.0 1.0 0.00 0.00 0.00 83 1010.2
20260830125910 68 1 0.0 0.0 0.00 0.00 0.00 83 1010.1
20260830124925 68 357 0.0 0.0 0.00 0.00 0.00 84 1010.0
20260830124504 67 357 0.0 1.0 0.00 0.00 0.00 83 1010.0
20260830123104 67 5 0.0 1.0 0.00 0.00 0.00 83 1009.8
20260830121745 68 32 0.0 0.0 0.00 0.00 0.00 83 1009.8
20260830121506 68 32 0.0 1.0 0.00 0.00 0.00 83 1009.9
20260830120802 68 31 0.0 0.0 0.00 0.00 0.00 84 1009.9
20260830120002 68 31 0.0 1.0 0.00 0.00 0.00 84 1009.9
20260830115812 68 31 0.0 0.0 0.00 0.00 0.00 84 1009.9
20260830114603 68 32 0.0 1.0 0.00 0.00 0.00 84 1009.8
20260830113620 68 32 0.0 0.0 0.00 0.00 0.00 85 1009.7
20260830113004 68 32 0.0 1.0 0.00 0.00 0.00 84 1009.7
20260830112603 68 32 0.0 0.0 0.00 0.00 0.00 84 1009.7
20260830111602 68 32 0.0 0.0 0.00 0.00 0.00 84 1009.7
20260830111543 69 32 0.0 0.0 0.00 0.00 0.00 84 1009.6
20260830110533 69 32 0.0 0.0 0.00 0.00 0.00 85 1009.6
20260830105549 69 32 0.0 0.0 0.00 0.00 0.00 84 1009.5
20260830104525 68 32 0.0 0.0 0.00 0.00 0.00 84 1009.6
20260830104502 68 32 0.0 1.0 0.00 0.00 0.00 84 1009.7
20260830103505 69 32 0.0 0.0 0.00 0.00 0.00 84 1009.6
20260830103003 69 32 0.0 1.0 0.00 0.00 0.00 84 1009.7
20260830102513 69 32 0.0 0.0 0.00 0.00 0.00 84 1009.6
20260830101620 69 32 0.0 1.0 0.00 0.00 0.00 84 1009.7
20260830101442 69 32 0.0 0.0 0.00 0.00 0.00 84 1009.7
20260830100425 69 32 0.0 1.0 0.00 0.00 0.00 83 1009.7
20260830095438 69 39 0.0 0.0 0.00 0.00 0.00 82 1009.7
20260830094504 69 38 0.0 1.0 0.00 0.00 0.00 81 1009.6
20260830093300 70 51 0.0 2.0 0.00 0.00 0.00 81 1009.4
20260830093102 69 34 1.0 2.0 0.00 0.00 0.00 81 1009.4
20260830092320 70 44 0.0 1.0 0.00 0.00 0.00 82 1009.4
20260830091510 68 33 0.0 3.0 0.00 0.00 0.00 83 1009.5
20260830090151 69 54 0.0 0.0 0.00 0.00 0.00 82 1009.6
20260830090003 68 54 0.0 0.0 0.00 0.00 0.00 82 1009.6
20260830085136 69 53 0.0 0.0 0.00 0.00 0.00 82 1009.5
20260830084603 69 53 0.0 1.0 0.00 0.00 0.00 83 1009.4
20260830084110 69 56 0.0 0.0 0.00 0.00 0.00 83 1009.4
20260830083044 69 71 0.0 0.0 0.00 0.00 0.00 83 1009.5
20260830083003 69 71 0.0 2.0 0.00 0.00 0.00 83 1009.6
20260830082011 69 162 0.0 0.0 0.00 0.00 0.00 84 1009.6
20260830081608 68 162 0.0 0.0 0.00 0.00 0.00 84 1009.7
20260830081002 69 162 0.0 0.0 0.00 0.00 0.00 84 1009.7
20260830080103 69 162 0.0 0.0 0.00 0.00 0.00 84 1009.7
20260830080023 69 162 0.0 0.0 0.00 0.00 0.00 84 1009.6
20260830073854 70 146 0.0 0.0 0.00 0.00 0.00 84 1009.7
20260830073002 70 146 0.0 1.0 0.00 0.00 0.00 84 1009.7
20260830071714 70 146 0.0 0.0 0.00 0.00 0.00 84 1009.7
20260830071610 70 146 0.0 0.0 0.00 0.00 0.00 84 1009.8
20260830070654 71 146 0.0 0.0 0.00 0.00 0.00 83 1009.6
20260830070113 70 34 0.0 2.0 0.00 0.00 0.00 83 1009.5
20260830065624 71 34 0.0 0.0 0.00 0.00 0.00 83 1009.4
20260830064622 71 21 0.0 3.0 0.00 0.00 0.00 84 1009.4
20260830064504 70 21 2.0 4.0 0.00 0.00 0.00 84 1009.4
20260830063104 69 68 0.0 1.0 0.00 0.00 0.00 83 1009.4
20260830061508 70 68 0.0 1.0 0.00 0.00 0.00 83 1009.1
20260830061422 70 69 0.0 0.0 0.00 0.00 0.00 83 1009.1
20260830060406 70 82 0.0 0.0 0.00 0.00 0.00 82 1009.1
20260830060002 69 147 0.0 1.0 0.00 0.00 0.00 83 1009.1
20260830055350 70 153 0.0 0.0 0.00 0.00 0.00 82 1009.1
20260830054604 70 153 0.0 0.0 0.00 0.00 0.00 82 1009.2
20260830053201 70 153 0.0 0.0 0.00 0.00 0.00 82 1009.1
20260830053003 70 153 0.0 0.0 0.00 0.00 0.00 81 1009.1
20260830052135 70 153 0.0 0.0 0.00 0.00 0.00 81 1009.1
20260830051610 70 153 0.0 0.0 0.00 0.00 0.00 81 1009.2
20260830051145 71 153 0.0 0.0 0.00 0.00 0.00 81 1009.1
20260830050131 71 153 0.0 0.0 0.00 0.00 0.00 81 1009.1
20260830050104 71 153 0.0 0.0 0.00 0.00 0.00 81 1009.3
20260830045119 71 153 0.0 0.0 0.00 0.00 0.00 81 1009.3
20260830044503 71 153 0.0 0.0 0.00 0.00 0.00 80 1009.2
20260830044116 71 153 0.0 0.0 0.00 0.00 0.00 80 1009.2
20260830043123 72 153 0.0 0.0 0.00 0.00 0.00 79 1009.1
20260830043103 71 153 0.0 0.0 0.00 0.00 0.00 79 1009.2
20260830042146 72 153 0.0 0.0 0.00 0.00 0.00 78 1009.2
20260830041502 72 153 0.0 0.0 0.00 0.00 0.00 78 1009.1
20260830041114 73 153 0.0 0.0 0.00 0.00 0.00 78 1009.1
20260830040003 73 153 0.0 1.0 0.00 0.00 0.00 77 1009.1
20260830035112 74 162 0.0 0.0 0.00 0.00 0.00 76 1009.0
20260830034603 74 162 0.0 2.0 0.00 0.00 0.00 76 1009.0
20260830034054 74 152 0.0 1.0 0.00 0.00 0.00 75 1008.9
20260830033054 75 214 0.0 0.0 0.00 0.00 0.00 73 1008.8
20260830033004 74 214 0.0 1.0 0.00 0.00 0.00 73 1008.8
20260830032049 75 147 0.0 0.0 0.00 0.00 0.00 72 1008.6
20260830031602 75 147 0.0 1.0 0.00 0.00 0.00 72 1008.6
20260830031043 75 153 0.0 0.0 0.00 0.00 0.00 71 1008.6
20260830030108 75 205 0.0 0.0 0.00 0.00 0.00 69 1008.5
20260830030018 76 205 0.0 0.0 0.00 0.00 0.00 69 1008.4
20260830024946 76 205 0.0 0.0 0.00 0.00 0.00 68 1008.4
20260830024503 76 205 0.0 1.0 0.00 0.00 0.00 68 1008.5
20260830023920 77 204 0.0 0.0 0.00 0.00 0.00 68 1008.3
20260830023116 77 204 0.0 2.0 0.00 0.00 0.00 68 1008.5
20260830021754 78 222 0.0 0.0 0.00 0.00 0.00 68 1008.3
20260830021503 77 157 0.0 2.0 0.00 0.00 0.00 68 1008.3
20260830020719 78 210 0.0 1.0 0.00 0.00 0.00 68 1008.2
20260830020004 78 207 0.0 2.0 0.00 0.00 0.00 68 1008.3
20260830015735 79 143 0.0 0.0 0.00 0.00 0.00 67 1008.2
20260830014603 79 241 0.0 4.0 0.00 0.00 0.00 66 1008.2
20260830013617 80 150 0.0 2.0 0.00 0.00 0.00 65 1008.2
20260830013003 80 203 0.0 3.0 0.00 0.00 0.00 65 1008.4
20260830011607 81 137 1.0 4.0 0.00 0.00 0.00 64 1008.4
20260830011456 81 240 1.0 3.0 0.00 0.00 0.00 63 1008.3
20260830010003 82 207 0.0 4.0 0.00 0.00 0.00 62 1008.4
20260830005403 83 270 1.0 5.0 0.00 0.00 0.00 60 1008.4
20260830004603 83 196 2.0 6.0 0.00 0.00 0.00 60 1008.6
20260830004406 83 214 2.0 5.0 0.00 0.00 0.00 59 1008.5
20260830003358 85 162 2.0 6.0 0.00 0.00 0.00 57 1008.5
20260830003007 84 217 2.0 7.0 0.00 0.00 0.00 55 1008.5
20260830002400 86 274 2.0 7.0 0.00 0.00 0.00 53 1008.2